Atwater, CA

3:14 AM PST on January 21, 2017 (GMT -0800)
Atwater

Weather History for KMER - September, 2012

Change the Weather History Date:

Saturday, September 15, 2012

  Actual Average (KMCE) Record (KMCE)
Temperature  
Mean Temperature 81 °F -  
Max Temperature 100 °F 89 °F 100 °F (2012)
Min Temperature 62 °F 54 °F 46 °F (2006)
Cooling Degree Days 16    
Growing Degree Days 31 (Base 50)    
Moisture  
Dew Point 45 °F    
Average Humidity 37    
Maximum Humidity 49    
Minimum Humidity 16    
Precipitation  
Precipitation 0.00 in - - ()
Sea Level Pressure  
Sea Level Pressure 29.99 in    
Wind  
Wind Speed 7 mph (NNW)    
Max Wind Speed 12 mph    
Max Gust Speed -    
Visibility 10 miles    
Events      
Averages and records for this station are not official NWS values.
T = Trace of Precipitation, MM = Missing Value Source: NWS Daily Summary

Daily Weather History Graph

Daily Weather History Graph

Search for Another Location

Airport or City:

Trip Planner

Search our weather history database for the weather conditions in past years. The results will help you decide how hot, cold, wet, or windy it might be!

Date:

Astronomy

Sep. 15, 2012 Rise Set
Actual Time 6:44 AM PDT 7:09 PM PDT
Civil Twilight 6:18 AM PDT 7:35 PM PDT
Nautical Twilight 5:47 AM PDT 8:05 PM PDT
Astronomical Twilight 5:16 AM PDT 8:37 PM PDT
Moon 6:20 AM PDT (9/15) 6:43 PM PDT (9/15)
Length of Visible Light 13h 16m
Length of Day
12h 24m
Waning Crescent, 0% of the Moon is Illuminated
Sep 15
Waning Crescent
Sep 15
New
Sep 22
First Quarter
Sep 29
Full
Oct 8
Last Quarter

Hourly Weather History & Observations

Time (PDT) Temp. Dew Point Humidity Pressure Visibility Wind Dir Wind Speed Gust Speed Precip Events Conditions
12:15 AM 69.8 °F 44.6 °F 40% 29.98 in 10.0 mi North 6.9 mph - N/A   Clear
12:35 AM 69.8 °F 44.6 °F 40% 29.98 in 10.0 mi North 6.9 mph - N/A   Clear
12:55 AM 69.8 °F 44.6 °F 40% 29.98 in 10.0 mi North - - N/A   Clear
1:15 AM 69.8 °F 44.6 °F 40% 29.98 in 10.0 mi North - - N/A   Clear
1:35 AM 69.8 °F 44.6 °F 40% 29.99 in 10.0 mi North 6.9 mph - N/A   Clear
1:55 AM 69.8 °F 44.6 °F 40% 29.99 in 10.0 mi North 8.1 mph - N/A   Clear
2:15 AM 68.0 °F 44.6 °F 43% 30.00 in 10.0 mi NW 5.8 mph - N/A   Clear
2:35 AM 69.8 °F 46.4 °F 43% 30.00 in 10.0 mi NW 5.8 mph - N/A   Clear
2:55 AM 66.2 °F 46.4 °F 49% 29.99 in 10.0 mi NNW 6.9 mph - N/A   Clear
3:15 AM 66.2 °F 46.4 °F 49% 29.99 in 10.0 mi NNW 6.9 mph - N/A   Clear
3:35 AM 66.2 °F 44.6 °F 46% 29.99 in 10.0 mi North 9.2 mph - N/A   Clear
3:55 AM 68.0 °F 44.6 °F 43% 29.99 in 10.0 mi North 8.1 mph - N/A   Clear
4:15 AM 66.2 °F 44.6 °F 46% 30.00 in 10.0 mi North 6.9 mph - N/A   Clear
4:35 AM 64.4 °F 44.6 °F 49% 30.00 in 10.0 mi North 4.6 mph - N/A   Clear
4:55 AM 64.4 °F 44.6 °F 49% 30.00 in 10.0 mi North 5.8 mph - N/A   Clear
5:15 AM 64.4 °F 44.6 °F 49% 30.00 in 10.0 mi North 4.6 mph - N/A   Clear
5:35 AM 64.4 °F 44.6 °F 49% 30.00 in 10.0 mi NNW 5.8 mph - N/A   Clear
5:55 AM 62.6 °F 42.8 °F 48% 30.00 in 10.0 mi North 4.6 mph - N/A   Clear
6:15 AM 64.4 °F 42.8 °F 45% 30.01 in 10.0 mi NW 3.5 mph - N/A   Clear
6:35 AM 64.4 °F 42.8 °F 45% 30.02 in 10.0 mi Calm Calm - N/A   Clear
6:50 AM 64.4 °F 42.8 °F 45% 30.02 in 10.0 mi Calm Calm - N/A   Clear
6:55 AM 64.4 °F 42.8 °F 45% 30.03 in 10.0 mi Calm Calm - N/A   Clear
7:45 AM 68.0 °F 44.6 °F 43% 30.03 in 10.0 mi NW 8.1 mph - N/A   Clear
8:45 AM 73.4 °F 42.8 °F 33% 30.04 in 10.0 mi NW 8.1 mph - N/A   Clear
9:45 AM 78.8 °F 41.0 °F 26% 30.05 in 10.0 mi NW 8.1 mph - N/A   Clear
10:54 AM 82.4 °F 39.2 °F 21% 30.05 in 10.0 mi North 6.9 mph - N/A   Clear
11:45 AM 89.6 °F 42.8 °F 20% 30.04 in 10.0 mi NW 8.1 mph - N/A   Clear
12:45 PM 91.4 °F 44.6 °F 20% 30.03 in 10.0 mi WNW 5.8 mph - N/A   Clear
1:45 PM 96.8 °F 44.6 °F 17% 30.00 in 10.0 mi WNW 6.9 mph - N/A   Clear
2:50 PM 98.6 °F 48.2 °F 18% 29.97 in 10.0 mi NW 8.1 mph - N/A   Clear
3:45 PM 100.4 °F 46.4 °F 16% 29.95 in 10.0 mi North 8.1 mph - N/A   Clear
4:45 PM 98.6 °F 46.4 °F 17% 29.93 in 10.0 mi North 9.2 mph - N/A   Clear
5:45 PM 95.0 °F 51.8 °F 23% 29.92 in 10.0 mi NW 11.5 mph - N/A   Clear
6:45 PM 89.6 °F 51.8 °F 27% 29.92 in 10.0 mi NNW 8.1 mph - N/A   Clear
7:45 PM 78.8 °F 51.8 °F 39% 29.93 in 10.0 mi NW 8.1 mph - N/A   Clear
8:45 PM 78.8 °F 51.8 °F 39% 29.94 in 10.0 mi NNW 8.1 mph - N/A   Clear
9:15 PM 75.2 °F 51.8 °F 44% 29.95 in 10.0 mi North 6.9 mph - N/A   Clear
9:35 PM 75.2 °F 50.0 °F 41% 29.95 in 10.0 mi North 9.2 mph - N/A   Clear
9:55 PM 75.2 °F 48.2 °F 38% 29.95 in 10.0 mi North 9.2 mph - N/A   Clear
10:15 PM 73.4 °F 46.4 °F 38% 29.95 in 10.0 mi North 9.2 mph - N/A   Clear
10:35 PM 73.4 °F 44.6 °F 36% 29.96 in 10.0 mi North 4.6 mph - N/A   Clear
10:55 PM 73.4 °F 42.8 °F 33% 29.96 in 10.0 mi North 6.9 mph - N/A   Clear
11:15 PM 73.4 °F 42.8 °F 33% 29.96 in 10.0 mi North 9.2 mph - N/A   Clear
11:35 PM 71.6 °F 42.8 °F 35% 29.96 in 10.0 mi North 9.2 mph - N/A   Clear
11:55 PM 71.6 °F 42.8 °F 35% 29.96 in 10.0 mi North - - N/A   Clear